| time (UTC) | temp F | wind direction | speed MPH | gust MPH | rain 1hr in | rain 24hr in | rain mn in | humidity % | barometer mb |
| 20260506224219 | 79 | 292 | 9.0 | 0.0 | 0.00 | 0.00 | 0.00 | 69 | 1012.5 |
| 20260506223717 | 78 | 251 | 8.0 | 0.0 | 0.00 | 0.00 | 0.00 | 69 | 1012.5 |
| 20260506223219 | 79 | 290 | 7.0 | 0.0 | 0.00 | 0.00 | 0.00 | 68 | 1012.5 |
| 20260506222715 | 80 | 183 | 7.0 | 0.0 | 0.00 | 0.00 | 0.00 | 69 | 1012.2 |
| 20260506222215 | 80 | 273 | 9.0 | 0.0 | 0.00 | 0.00 | 0.00 | 69 | 1012.2 |
| 20260506221717 | 80 | 312 | 6.0 | 0.0 | 0.00 | 0.00 | 0.00 | 70 | 1012.2 |
| 20260506221216 | 80 | 241 | 8.0 | 0.0 | 0.00 | 0.00 | 0.00 | 69 | 1012.2 |
| 20260506220716 | 80 | 288 | 8.0 | 0.0 | 0.00 | 0.00 | 0.00 | 69 | 1012.2 |
| 20260506220215 | 80 | 298 | 9.0 | 0.0 | 0.00 | 0.00 | 0.00 | 70 | 1012.2 |
| 20260506215715 | 80 | 245 | 8.0 | 0.0 | 0.00 | 0.00 | 0.00 | 69 | 1011.9 |
| 20260506215215 | 81 | 350 | 8.0 | 0.0 | 0.00 | 0.00 | 0.00 | 70 | 1012.2 |
| 20260506214715 | 80 | 133 | 11.0 | 0.0 | 0.00 | 0.00 | 0.00 | 71 | 1012.2 |
| 20260506214214 | 80 | 303 | 9.0 | 0.0 | 0.00 | 0.00 | 0.00 | 70 | 1012.2 |
| 20260506213713 | 81 | 328 | 8.0 | 0.0 | 0.00 | 0.00 | 0.00 | 72 | 1012.2 |
| 20260506213215 | 80 | 293 | 10.0 | 0.0 | 0.00 | 0.00 | 0.00 | 70 | 1012.2 |
| 20260506212715 | 80 | 232 | 6.0 | 0.0 | 0.00 | 0.00 | 0.00 | 72 | 1012.2 |
| 20260506212213 | 80 | 288 | 8.0 | 0.0 | 0.00 | 0.00 | 0.00 | 73 | 1012.2 |
| 20260506211717 | 80 | 258 | 8.0 | 0.0 | 0.00 | 0.00 | 0.00 | 72 | 1012.2 |
| 20260506211214 | 80 | 279 | 8.0 | 0.0 | 0.00 | 0.00 | 0.00 | 72 | 1012.2 |
| 20260506210713 | 80 | 285 | 9.0 | 0.0 | 0.00 | 0.00 | 0.00 | 70 | 1012.2 |
| 20260506210213 | 81 | 255 | 9.0 | 0.0 | 0.00 | 0.00 | 0.00 | 71 | 1012.2 |
| 20260506205713 | 83 | 227 | 10.0 | 0.0 | 0.00 | 0.00 | 0.00 | 68 | 1012.2 |
| 20260506205212 | 84 | 186 | 5.0 | 0.0 | 0.00 | 0.00 | 0.00 | 70 | 1011.9 |
| 20260506204712 | 84 | 245 | 4.0 | 0.0 | 0.00 | 0.00 | 0.00 | 68 | 1011.9 |
| 20260506204211 | 84 | 186 | 4.0 | 0.0 | 0.00 | 0.00 | 0.00 | 67 | 1011.9 |
| 20260506203712 | 84 | 83 | 3.0 | 0.0 | 0.00 | 0.00 | 0.00 | 67 | 1011.9 |
| 20260506203213 | 84 | 208 | 4.0 | 0.0 | 0.00 | 0.00 | 0.00 | 67 | 1011.9 |
| 20260506202712 | 84 | 237 | 3.0 | 0.0 | 0.00 | 0.00 | 0.00 | 68 | 1012.2 |
| 20260506202213 | 84 | 173 | 4.0 | 0.0 | 0.00 | 0.00 | 0.00 | 67 | 1012.2 |
| 20260506201711 | 85 | 168 | 5.0 | 0.0 | 0.00 | 0.00 | 0.00 | 68 | 1012.2 |
| 20260506201214 | 85 | 133 | 7.0 | 0.0 | 0.00 | 0.00 | 0.00 | 68 | 1012.2 |
| 20260506200713 | 85 | 125 | 4.0 | 0.0 | 0.00 | 0.00 | 0.00 | 68 | 1012.2 |
| 20260506200213 | 85 | 101 | 6.0 | 0.0 | 0.00 | 0.00 | 0.00 | 71 | 1012.2 |
| 20260506195710 | 85 | 127 | 4.0 | 0.0 | 0.00 | 0.00 | 0.00 | 69 | 1012.2 |
| 20260506195213 | 85 | 191 | 6.0 | 0.0 | 0.00 | 0.00 | 0.00 | 67 | 1012.5 |
| 20260506194714 | 86 | 106 | 5.0 | 0.0 | 0.00 | 0.00 | 0.00 | 67 | 1012.5 |
| 20260506194214 | 85 | 107 | 4.0 | 0.0 | 0.00 | 0.00 | 0.00 | 69 | 1012.5 |
| 20260506193710 | 85 | 237 | 7.0 | 0.0 | 0.00 | 0.00 | 0.00 | 70 | 1012.5 |
| 20260506193210 | 85 | 194 | 5.0 | 0.0 | 0.00 | 0.00 | 0.00 | 69 | 1012.2 |
| 20260506192713 | 85 | 269 | 6.0 | 0.0 | 0.00 | 0.00 | 0.00 | 70 | 1012.5 |
| 20260506192211 | 85 | 178 | 6.0 | 0.0 | 0.00 | 0.00 | 0.00 | 70 | 1012.5 |
| 20260506191713 | 84 | 93 | 5.0 | 0.0 | 0.00 | 0.00 | 0.00 | 70 | 1012.5 |
| 20260506191213 | 84 | 142 | 4.0 | 0.0 | 0.00 | 0.00 | 0.00 | 73 | 1012.5 |
| 20260506190715 | 83 | 285 | 3.0 | 0.0 | 0.00 | 0.00 | 0.00 | 72 | 1012.5 |
| 20260506190216 | 83 | 119 | 4.0 | 0.0 | 0.00 | 0.00 | 0.00 | 72 | 1012.9 |
| 20260506185715 | 83 | 81 | 5.0 | 0.0 | 0.00 | 0.00 | 0.00 | 73 | 1012.9 |
| 20260506185212 | 83 | 288 | 5.0 | 0.0 | 0.00 | 0.00 | 0.00 | 73 | 1012.9 |
| 20260506184712 | 83 | 283 | 6.0 | 0.0 | 0.00 | 0.00 | 0.00 | 74 | 1012.9 |
| 20260506184213 | 83 | 82 | 6.0 | 0.0 | 0.00 | 0.00 | 0.00 | 75 | 1012.9 |
| 20260506183710 | 82 | 88 | 4.0 | 0.0 | 0.00 | 0.00 | 0.00 | 75 | 1012.9 |
| 20260506183213 | 82 | 145 | 4.0 | 0.0 | 0.00 | 0.00 | 0.00 | 76 | 1013.2 |
| 20260506182711 | 82 | 272 | 3.0 | 0.0 | 0.00 | 0.00 | 0.00 | 75 | 1013.2 |
| 20260506182212 | 82 | 146 | 6.0 | 0.0 | 0.00 | 0.00 | 0.00 | 76 | 1013.2 |
| 20260506181714 | 82 | 132 | 5.0 | 0.0 | 0.00 | 0.00 | 0.00 | 75 | 1013.2 |
| 20260506181214 | 82 | 349 | 6.0 | 0.0 | 0.00 | 0.00 | 0.00 | 77 | 1013.2 |
| 20260506180711 | 81 | 108 | 6.0 | 0.0 | 0.00 | 0.00 | 0.00 | 80 | 1013.2 |
| 20260506180213 | 80 | 61 | 5.0 | 0.0 | 0.00 | 0.00 | 0.00 | 81 | 1013.2 |
| 20260506175710 | 80 | 145 | 7.0 | 0.0 | 0.00 | 0.00 | 0.00 | 83 | 1013.2 |
| 20260506175211 | 79 | 161 | 5.0 | 0.0 | 0.00 | 0.00 | 0.00 | 82 | 1013.5 |
| 20260506174712 | 79 | 337 | 6.0 | 0.0 | 0.00 | 0.00 | 0.00 | 82 | 1013.5 |
| 20260506174214 | 79 | 143 | 4.0 | 0.0 | 0.00 | 0.00 | 0.00 | 83 | 1013.5 |
| 20260506173713 | 79 | 211 | 6.0 | 0.0 | 0.00 | 0.00 | 0.00 | 83 | 1013.5 |
| 20260506173213 | 79 | 168 | 5.0 | 0.0 | 0.00 | 0.00 | 0.00 | 84 | 1013.5 |
| 20260506172724 | 78 | 256 | 4.0 | 0.0 | 0.00 | 0.00 | 0.00 | 86 | 1013.5 |
| 20260506172222 | 78 | 263 | 6.0 | 0.0 | 0.00 | 0.00 | 0.00 | 86 | 1013.5 |
| 20260506171722 | 78 | 143 | 3.0 | 0.0 | 0.00 | 0.00 | 0.00 | 87 | 1013.5 |
| 20260506171225 | 78 | 221 | 4.0 | 0.0 | 0.00 | 0.00 | 0.00 | 88 | 1013.5 |
| 20260506170722 | 77 | 238 | 2.0 | 0.0 | 0.00 | 0.00 | 0.00 | 88 | 1013.5 |
| 20260506170222 | 77 | 155 | 4.0 | 0.0 | 0.00 | 0.00 | 0.00 | 88 | 1013.5 |
| 20260506165722 | 77 | 144 | 4.0 | 0.0 | 0.00 | 0.00 | 0.00 | 89 | 1013.5 |
| 20260506165223 | 77 | 204 | 2.0 | 0.0 | 0.00 | 0.00 | 0.00 | 90 | 1013.9 |
| 20260506164722 | 77 | 158 | 4.0 | 0.0 | 0.00 | 0.00 | 0.00 | 89 | 1013.5 |
| 20260506164223 | 77 | 145 | 3.0 | 0.0 | 0.00 | 0.00 | 0.00 | 90 | 1013.5 |
| 20260506163721 | 76 | 118 | 4.0 | 0.0 | 0.00 | 0.00 | 0.00 | 90 | 1013.5 |
| 20260506163221 | 76 | 163 | 3.0 | 0.0 | 0.00 | 0.00 | 0.00 | 91 | 1013.5 |
| 20260506162719 | 76 | 213 | 2.0 | 0.0 | 0.00 | 0.00 | 0.00 | 92 | 1013.5 |
| 20260506162220 | 76 | 174 | 3.0 | 0.0 | 0.00 | 0.00 | 0.00 | 92 | 1013.5 |
| 20260506161721 | 76 | 235 | 0.0 | 0.0 | 0.00 | 0.00 | 0.00 | 93 | 1013.5 |
| 20260506161220 | 75 | 190 | 0.0 | 0.0 | 0.00 | 0.00 | 0.00 | 93 | 1013.5 |
| 20260506160719 | 75 | 195 | 1.0 | 0.0 | 0.00 | 0.00 | 0.00 | 93 | 1013.5 |
| 20260506160220 | 75 | 152 | 0.0 | 0.0 | 0.00 | 0.00 | 0.00 | 94 | 1013.2 |
| 20260506155719 | 75 | 196 | 0.0 | 0.0 | 0.00 | 0.00 | 0.00 | 94 | 1013.2 |
| 20260506155220 | 75 | 123 | 2.0 | 0.0 | 0.00 | 0.00 | 0.00 | 94 | 1013.2 |
| 20260506154721 | 75 | 136 | 2.0 | 0.0 | 0.00 | 0.00 | 0.00 | 94 | 1013.2 |
| 20260506154219 | 75 | 158 | 2.0 | 0.0 | 0.00 | 0.00 | 0.00 | 94 | 1013.2 |
| 20260506153719 | 75 | 280 | 0.0 | 0.0 | 0.00 | 0.00 | 0.00 | 94 | 1013.2 |
| 20260506153219 | 74 | 220 | 0.0 | 0.0 | 0.00 | 0.00 | 0.00 | 94 | 1013.2 |
| 20260506152718 | 75 | 227 | 0.0 | 0.0 | 0.00 | 0.00 | 0.00 | 94 | 1012.9 |
| 20260506152218 | 75 | 215 | 0.0 | 0.0 | 0.00 | 0.00 | 0.00 | 94 | 1012.9 |
| 20260506151720 | 75 | 212 | 0.0 | 0.0 | 0.00 | 0.00 | 0.00 | 94 | 1012.9 |
| 20260506151218 | 75 | 278 | 0.0 | 0.0 | 0.00 | 0.00 | 0.00 | 94 | 1012.9 |
| 20260506150718 | 74 | 221 | 0.0 | 0.0 | 0.00 | 0.00 | 0.00 | 94 | 1012.5 |
| 20260506150218 | 74 | 168 | 0.0 | 0.0 | 0.00 | 0.00 | 0.00 | 93 | 1012.5 |
| 20260506145717 | 75 | 212 | 0.0 | 0.0 | 0.00 | 0.00 | 0.00 | 93 | 1012.5 |
| 20260506145218 | 75 | 233 | 0.0 | 0.0 | 0.00 | 0.00 | 0.00 | 93 | 1012.5 |
| 20260506144717 | 74 | 207 | 0.0 | 0.0 | 0.00 | 0.00 | 0.00 | 93 | 1012.9 |
| 20260506144216 | 74 | 202 | 0.0 | 0.0 | 0.00 | 0.00 | 0.00 | 93 | 1012.9 |
| 20260506143719 | 74 | 226 | 2.0 | 0.0 | 0.00 | 0.00 | 0.00 | 93 | 1012.9 |
| 20260506143217 | 74 | 286 | 2.0 | 0.0 | 0.00 | 0.00 | 0.00 | 93 | 1012.5 |
| 20260506142718 | 74 | 242 | 0.0 | 0.0 | 0.00 | 0.00 | 0.00 | 93 | 1012.5 |
| 20260506142216 | 74 | 187 | 0.0 | 0.0 | 0.00 | 0.00 | 0.00 | 94 | 1012.2 |
| 20260506141717 | 74 | 213 | 0.0 | 0.0 | 0.00 | 0.00 | 0.00 | 94 | 1012.2 |
| 20260506141215 | 74 | 186 | 0.0 | 0.0 | 0.00 | 0.00 | 0.00 | 94 | 1012.2 |
| 20260506140716 | 74 | 130 | 2.0 | 0.0 | 0.00 | 0.00 | 0.00 | 94 | 1012.2 |
| 20260506140216 | 74 | 176 | 0.0 | 0.0 | 0.00 | 0.00 | 0.00 | 94 | 1011.9 |
| 20260506135716 | 74 | 197 | 0.0 | 0.0 | 0.00 | 0.00 | 0.00 | 94 | 1011.9 |
| 20260506135215 | 74 | 183 | 3.0 | 0.0 | 0.00 | 0.00 | 0.00 | 94 | 1011.9 |
| 20260506134716 | 74 | 156 | 3.0 | 0.0 | 0.00 | 0.00 | 0.00 | 94 | 1011.5 |
| 20260506134216 | 74 | 149 | 4.0 | 0.0 | 0.00 | 0.00 | 0.00 | 94 | 1011.5 |
| 20260506133716 | 74 | 195 | 4.0 | 0.0 | 0.00 | 0.00 | 0.00 | 94 | 1011.5 |
| 20260506133216 | 74 | 183 | 0.0 | 0.0 | 0.00 | 0.00 | 0.00 | 94 | 1011.5 |
| 20260506132714 | 74 | 180 | 0.0 | 0.0 | 0.00 | 0.00 | 0.00 | 95 | 1011.2 |
| 20260506132213 | 74 | 204 | 4.0 | 0.0 | 0.00 | 0.00 | 0.00 | 94 | 1011.2 |
| 20260506131714 | 74 | 139 | 3.0 | 0.0 | 0.00 | 0.00 | 0.00 | 95 | 1011.2 |
| 20260506131216 | 74 | 168 | 3.0 | 0.0 | 0.00 | 0.00 | 0.00 | 95 | 1011.2 |
| 20260506130713 | 74 | 81 | 3.0 | 0.0 | 0.00 | 0.00 | 0.00 | 94 | 1011.2 |
| 20260506130216 | 74 | 121 | 2.0 | 0.0 | 0.00 | 0.00 | 0.00 | 95 | 1010.8 |
| 20260506125713 | 74 | 123 | 2.0 | 0.0 | 0.00 | 0.00 | 0.00 | 94 | 1010.8 |
| 20260506125212 | 74 | 142 | 1.0 | 0.0 | 0.00 | 0.00 | 0.00 | 94 | 1010.8 |
| 20260506124711 | 74 | 159 | 2.0 | 0.0 | 0.00 | 0.00 | 0.00 | 94 | 1010.8 |
| 20260506124211 | 74 | 173 | 3.0 | 0.0 | 0.00 | 0.00 | 0.00 | 94 | 1010.8 |
| 20260506123712 | 74 | 201 | 3.0 | 0.0 | 0.00 | 0.00 | 0.00 | 94 | 1010.8 |
| 20260506123212 | 74 | 159 | 0.0 | 0.0 | 0.00 | 0.00 | 0.00 | 94 | 1010.8 |
| 20260506122717 | 73 | 128 | 0.0 | 0.0 | 0.00 | 0.00 | 0.00 | 94 | 1010.8 |
| 20260506122211 | 74 | 181 | 0.0 | 0.0 | 0.00 | 0.00 | 0.00 | 94 | 1011.2 |
| 20260506121717 | 74 | 172 | 3.0 | 0.0 | 0.00 | 0.00 | 0.00 | 94 | 1011.2 |
| 20260506121214 | 74 | 147 | 3.0 | 0.0 | 0.00 | 0.00 | 0.00 | 94 | 1011.2 |
| 20260506120711 | 74 | 200 | 0.0 | 0.0 | 0.00 | 0.00 | 0.00 | 94 | 1011.2 |
| 20260506120214 | 74 | 148 | 0.0 | 0.0 | 0.00 | 0.00 | 0.00 | 94 | 1010.8 |
| 20260506115713 | 74 | 167 | 0.0 | 0.0 | 0.00 | 0.00 | 0.00 | 94 | 1010.8 |
| 20260506115210 | 74 | 217 | 0.0 | 0.0 | 0.00 | 0.00 | 0.00 | 94 | 1010.8 |
| 20260506114713 | 74 | 188 | 0.0 | 0.0 | 0.00 | 0.00 | 0.00 | 94 | 1010.8 |
| 20260506114212 | 74 | 175 | 0.0 | 0.0 | 0.00 | 0.00 | 0.00 | 94 | 1011.2 |
| 20260506113713 | 74 | 194 | 0.0 | 0.0 | 0.00 | 0.00 | 0.00 | 94 | 1010.8 |
| 20260506113212 | 74 | 146 | 0.0 | 0.0 | 0.00 | 0.00 | 0.00 | 94 | 1010.8 |
| 20260506112710 | 74 | 176 | 3.0 | 0.0 | 0.00 | 0.00 | 0.00 | 94 | 1010.8 |
| 20260506112211 | 74 | 196 | 0.0 | 0.0 | 0.00 | 0.00 | 0.00 | 94 | 1011.2 |
| 20260506111711 | 74 | 189 | 0.0 | 0.0 | 0.00 | 0.00 | 0.00 | 94 | 1011.2 |
| 20260506111214 | 74 | 226 | 0.0 | 0.0 | 0.00 | 0.00 | 0.00 | 94 | 1011.2 |
| 20260506110712 | 74 | 219 | 0.0 | 0.0 | 0.00 | 0.00 | 0.00 | 94 | 1010.8 |
| 20260506110211 | 74 | 173 | 0.0 | 0.0 | 0.00 | 0.00 | 0.00 | 94 | 1010.8 |
| 20260506105710 | 73 | 205 | 0.0 | 0.0 | 0.00 | 0.00 | 0.00 | 94 | 1010.8 |
| 20260506105212 | 74 | 190 | 0.0 | 0.0 | 0.00 | 0.00 | 0.00 | 94 | 1010.8 |
| 20260506104712 | 74 | 190 | 0.0 | 0.0 | 0.00 | 0.00 | 0.00 | 94 | 1010.8 |
| 20260506104210 | 74 | 191 | 0.0 | 0.0 | 0.00 | 0.00 | 0.00 | 94 | 1010.8 |
| 20260506103711 | 74 | 188 | 3.0 | 0.0 | 0.00 | 0.00 | 0.00 | 94 | 1010.8 |
| 20260506103211 | 73 | 121 | 3.0 | 0.0 | 0.00 | 0.00 | 0.00 | 94 | 1010.8 |
| 20260506102713 | 74 | 116 | 3.0 | 0.0 | 0.00 | 0.00 | 0.00 | 94 | 1010.8 |
| 20260506102212 | 74 | 222 | 2.0 | 0.0 | 0.00 | 0.00 | 0.00 | 94 | 1010.8 |
| 20260506101713 | 74 | 220 | 2.0 | 0.0 | 0.00 | 0.00 | 0.00 | 94 | 1010.8 |
| 20260506101210 | 74 | 191 | 2.0 | 0.0 | 0.00 | 0.00 | 0.00 | 94 | 1010.8 |
| 20260506100710 | 74 | 169 | 3.0 | 0.0 | 0.00 | 0.00 | 0.00 | 94 | 1010.8 |
| 20260506100214 | 74 | 180 | 4.0 | 0.0 | 0.00 | 0.00 | 0.00 | 94 | 1010.8 |
| 20260506095829 | 74 | 136 | 5.0 | 0.0 | 0.00 | 0.00 | 0.00 | 94 | 1010.8 |
| 20260506094731 | 74 | 184 | 4.0 | 0.0 | 0.00 | 0.00 | 0.00 | 94 | 1010.8 |
| 20260506094229 | 74 | 196 | 4.0 | 0.0 | 0.00 | 0.00 | 0.00 | 93 | 1010.8 |
| 20260506093729 | 74 | 120 | 3.0 | 0.0 | 0.00 | 0.00 | 0.00 | 93 | 1010.8 |
| 20260506093228 | 74 | 242 | 5.0 | 0.0 | 0.00 | 0.00 | 0.00 | 93 | 1010.8 |
| 20260506092727 | 74 | 198 | 2.0 | 0.0 | 0.00 | 0.00 | 0.00 | 93 | 1010.8 |
| 20260506092227 | 74 | 196 | 4.0 | 0.0 | 0.00 | 0.00 | 0.00 | 93 | 1010.8 |
| 20260506091728 | 74 | 320 | 5.0 | 0.0 | 0.00 | 0.00 | 0.00 | 93 | 1010.5 |
| 20260506091230 | 74 | 93 | 7.0 | 0.0 | 0.00 | 0.00 | 0.00 | 93 | 1010.5 |
| 20260506090729 | 74 | 163 | 4.0 | 0.0 | 0.00 | 0.00 | 0.00 | 93 | 1010.5 |
| 20260506090228 | 74 | 153 | 4.0 | 0.0 | 0.00 | 0.00 | 0.00 | 93 | 1010.5 |
| 20260506085727 | 74 | 140 | 4.0 | 0.0 | 0.00 | 0.00 | 0.00 | 92 | 1010.5 |
| 20260506085226 | 74 | 106 | 4.0 | 0.0 | 0.00 | 0.00 | 0.00 | 92 | 1010.5 |
| 20260506084727 | 74 | 104 | 9.0 | 0.0 | 0.00 | 0.00 | 0.00 | 92 | 1010.5 |
| 20260506084226 | 74 | 137 | 7.0 | 0.0 | 0.00 | 0.00 | 0.00 | 92 | 1010.5 |
| 20260506083727 | 74 | 135 | 5.0 | 0.0 | 0.00 | 0.00 | 0.00 | 92 | 1010.5 |
| 20260506083225 | 74 | 166 | 7.0 | 0.0 | 0.00 | 0.00 | 0.00 | 92 | 1010.5 |
| 20260506082727 | 74 | 116 | 5.0 | 0.0 | 0.00 | 0.00 | 0.00 | 92 | 1010.5 |
| 20260506082225 | 74 | 134 | 6.0 | 0.0 | 0.00 | 0.00 | 0.00 | 92 | 1010.8 |
| 20260506081727 | 74 | 146 | 4.0 | 0.0 | 0.00 | 0.00 | 0.00 | 92 | 1010.8 |
| 20260506081225 | 74 | 166 | 4.0 | 0.0 | 0.00 | 0.00 | 0.00 | 91 | 1010.8 |
| 20260506080728 | 75 | 191 | 4.0 | 0.0 | 0.00 | 0.00 | 0.00 | 91 | 1010.8 |
| 20260506080227 | 74 | 123 | 5.0 | 0.0 | 0.00 | 0.00 | 0.00 | 91 | 1010.8 |
| 20260506073226 | 75 | 113 | 6.0 | 0.0 | 0.00 | 0.00 | 0.00 | 91 | 1011.2 |
| 20260506072723 | 75 | 193 | 3.0 | 0.0 | 0.00 | 0.00 | 0.00 | 91 | 1011.2 |
| 20260506072223 | 75 | 215 | 4.0 | 0.0 | 0.00 | 0.00 | 0.00 | 91 | 1011.2 |
| 20260506071723 | 75 | 98 | 3.0 | 0.0 | 0.00 | 0.00 | 0.00 | 91 | 1011.2 |
| 20260506071222 | 75 | 138 | 4.0 | 0.0 | 0.00 | 0.00 | 0.00 | 91 | 1011.2 |
| 20260506070722 | 75 | 196 | 4.0 | 0.0 | 0.00 | 0.00 | 0.00 | 91 | 1011.2 |
| 20260506070224 | 75 | 195 | 4.0 | 0.0 | 0.00 | 0.00 | 0.00 | 91 | 1011.2 |
| 20260506062221 | 75 | 278 | 4.0 | 0.0 | 0.00 | 0.00 | 0.00 | 91 | 1011.2 |
| 20260506061722 | 75 | 123 | 7.0 | 0.0 | 0.00 | 0.00 | 0.00 | 91 | 1011.2 |
| 20260506061221 | 75 | 99 | 4.0 | 0.0 | 0.00 | 0.00 | 0.00 | 90 | 1011.2 |
| 20260506060722 | 75 | 154 | 4.0 | 0.0 | 0.00 | 0.00 | 0.00 | 90 | 1011.2 |
| 20260506060220 | 75 | 75 | 4.0 | 0.0 | 0.00 | 0.00 | 0.00 | 90 | 1011.2 |
| 20260506051218 | 76 | 76 | 5.0 | 0.0 | 0.00 | 0.00 | 0.00 | 89 | 1011.2 |
| 20260506050721 | 76 | 209 | 4.0 | 0.0 | 0.00 | 0.00 | 0.00 | 89 | 1011.2 |
| 20260506050218 | 76 | 101 | 7.0 | 0.0 | 0.00 | 0.00 | 0.00 | 89 | 1011.2 |
| 20260506044718 | 76 | 106 | 3.0 | 0.0 | 0.00 | 0.00 | 0.00 | 88 | 1010.8 |
| 20260506044217 | 76 | 133 | 4.0 | 0.0 | 0.00 | 0.00 | 0.00 | 88 | 1011.2 |
| 20260506043717 | 76 | 120 | 4.0 | 0.0 | 0.00 | 0.00 | 0.00 | 88 | 1011.2 |
| 20260506043217 | 77 | 110 | 5.0 | 0.0 | 0.00 | 0.00 | 0.00 | 88 | 1011.2 |
| 20260506042717 | 77 | 122 | 4.0 | 0.0 | 0.00 | 0.00 | 0.00 | 88 | 1010.8 |
| 20260506042215 | 77 | 153 | 3.0 | 0.0 | 0.00 | 0.00 | 0.00 | 88 | 1011.2 |
| 20260506041717 | 77 | 191 | 4.0 | 0.0 | 0.00 | 0.00 | 0.00 | 88 | 1010.8 |
| 20260506041217 | 77 | 189 | 3.0 | 0.0 | 0.00 | 0.00 | 0.00 | 88 | 1010.8 |
| 20260506040717 | 77 | 140 | 5.0 | 0.0 | 0.00 | 0.00 | 0.00 | 88 | 1010.8 |
| 20260506040218 | 77 | 61 | 5.0 | 0.0 | 0.00 | 0.00 | 0.00 | 88 | 1010.8 |
| 20260506035718 | 77 | 126 | 7.0 | 0.0 | 0.00 | 0.00 | 0.00 | 88 | 1010.8 |
| 20260506035215 | 77 | 142 | 5.0 | 0.0 | 0.00 | 0.00 | 0.00 | 88 | 1010.8 |
| 20260506034716 | 77 | 171 | 4.0 | 0.0 | 0.00 | 0.00 | 0.00 | 88 | 1010.5 |
| 20260506034216 | 77 | 173 | 3.0 | 0.0 | 0.00 | 0.00 | 0.00 | 88 | 1010.5 |
| 20260506033715 | 77 | 162 | 4.0 | 0.0 | 0.00 | 0.00 | 0.00 | 87 | 1010.5 |
| 20260506033217 | 77 | 147 | 6.0 | 0.0 | 0.00 | 0.00 | 0.00 | 87 | 1010.5 |
| 20260506032714 | 78 | 103 | 7.0 | 0.0 | 0.00 | 0.00 | 0.00 | 87 | 1010.5 |
| 20260506032213 | 78 | 178 | 5.0 | 0.0 | 0.00 | 0.00 | 0.00 | 86 | 1010.2 |
| 20260506031715 | 78 | 120 | 4.0 | 0.0 | 0.00 | 0.00 | 0.00 | 86 | 1010.2 |
| 20260506031214 | 78 | 188 | 3.0 | 0.0 | 0.00 | 0.00 | 0.00 | 86 | 1010.2 |
| 20260506030713 | 78 | 159 | 2.0 | 0.0 | 0.00 | 0.00 | 0.00 | 85 | 1009.8 |
| 20260506030216 | 78 | 171 | 4.0 | 0.0 | 0.00 | 0.00 | 0.00 | 85 | 1009.8 |
| 20260506025714 | 78 | 121 | 3.0 | 0.0 | 0.00 | 0.00 | 0.00 | 85 | 1009.8 |
| 20260506025213 | 79 | 207 | 4.0 | 0.0 | 0.00 | 0.00 | 0.00 | 84 | 1009.8 |
| 20260506024713 | 79 | 64 | 5.0 | 0.0 | 0.00 | 0.00 | 0.00 | 84 | 1009.8 |
| 20260506024214 | 79 | 128 | 4.0 | 0.0 | 0.00 | 0.00 | 0.00 | 84 | 1009.8 |
| 20260506023714 | 79 | 193 | 4.0 | 0.0 | 0.00 | 0.00 | 0.00 | 83 | 1009.5 |
| 20260506023216 | 79 | 133 | 4.0 | 0.0 | 0.00 | 0.00 | 0.00 | 83 | 1009.5 |
| 20260506022713 | 79 | 194 | 4.0 | 0.0 | 0.00 | 0.00 | 0.00 | 82 | 1009.5 |
| 20260506022214 | 79 | 125 | 4.0 | 0.0 | 0.00 | 0.00 | 0.00 | 82 | 1009.5 |
| 20260506021713 | 79 | 170 | 3.0 | 0.0 | 0.00 | 0.00 | 0.00 | 82 | 1009.1 |
| 20260506021212 | 79 | 188 | 3.0 | 0.0 | 0.00 | 0.00 | 0.00 | 82 | 1009.1 |
| 20260506020713 | 79 | 148 | 3.0 | 0.0 | 0.00 | 0.00 | 0.00 | 82 | 1009.5 |
| 20260506020213 | 79 | 162 | 4.0 | 0.0 | 0.00 | 0.00 | 0.00 | 82 | 1009.1 |
| 20260506015710 | 79 | 219 | 3.0 | 0.0 | 0.00 | 0.00 | 0.00 | 82 | 1009.1 |
| 20260506015210 | 79 | 197 | 3.0 | 0.0 | 0.00 | 0.00 | 0.00 | 82 | 1009.1 |
| 20260506014715 | 79 | 179 | 4.0 | 0.0 | 0.00 | 0.00 | 0.00 | 82 | 1008.8 |
| 20260506014212 | 79 | 199 | 3.0 | 0.0 | 0.00 | 0.00 | 0.00 | 82 | 1008.8 |
| 20260506013711 | 80 | 163 | 3.0 | 0.0 | 0.00 | 0.00 | 0.00 | 82 | 1008.8 |
| 20260506013213 | 80 | 141 | 3.0 | 0.0 | 0.00 | 0.00 | 0.00 | 82 | 1008.8 |
| 20260506012709 | 80 | 143 | 2.0 | 0.0 | 0.00 | 0.00 | 0.00 | 82 | 1008.8 |
| 20260506012214 | 80 | 112 | 2.0 | 0.0 | 0.00 | 0.00 | 0.00 | 81 | 1008.8 |
| 20260506011711 | 80 | 150 | 0.0 | 0.0 | 0.00 | 0.00 | 0.00 | 81 | 1008.8 |
| 20260506011209 | 81 | 169 | 0.0 | 0.0 | 0.00 | 0.00 | 0.00 | 81 | 1008.8 |
| 20260506010714 | 81 | 175 | 0.0 | 0.0 | 0.00 | 0.00 | 0.00 | 79 | 1008.8 |
| 20260506010212 | 81 | 187 | 0.0 | 0.0 | 0.00 | 0.00 | 0.00 | 79 | 1008.5 |
| 20260506005713 | 81 | 187 | 1.0 | 0.0 | 0.00 | 0.00 | 0.00 | 78 | 1008.5 |
| 20260506005210 | 82 | 178 | 2.0 | 0.0 | 0.00 | 0.00 | 0.00 | 77 | 1008.5 |
| 20260506004717 | 82 | 207 | 2.0 | 0.0 | 0.00 | 0.00 | 0.00 | 77 | 1008.5 |
| 20260506004214 | 82 | 175 | 0.0 | 0.0 | 0.00 | 0.00 | 0.00 | 77 | 1008.5 |
| 20260506003710 | 82 | 201 | 2.0 | 0.0 | 0.00 | 0.00 | 0.00 | 77 | 1008.5 |
| 20260506003210 | 82 | 202 | 2.0 | 0.0 | 0.00 | 0.00 | 0.00 | 77 | 1008.5 |
| 20260506002712 | 82 | 182 | 0.0 | 0.0 | 0.00 | 0.00 | 0.00 | 77 | 1008.5 |
| 20260506002215 | 83 | 186 | 0.0 | 0.0 | 0.00 | 0.00 | 0.00 | 76 | 1008.5 |
| 20260506001711 | 83 | 189 | 2.0 | 0.0 | 0.00 | 0.00 | 0.00 | 75 | 1008.5 |
| 20260506001213 | 83 | 182 | 0.0 | 0.0 | 0.00 | 0.00 | 0.00 | 74 | 1008.5 |
| 20260506000711 | 83 | 197 | 0.0 | 0.0 | 0.00 | 0.00 | 0.00 | 73 | 1008.1 |
| 20260506000312 | 83 | 187 | 2.0 | 0.0 | 0.00 | 0.00 | 0.00 | 73 | 1008.5 |
| 20260505235213 | 84 | 190 | 1.0 | 0.0 | 0.00 | 0.00 | 0.00 | 72 | 1008.5 |
| 20260505234713 | 84 | 197 | 0.0 | 0.0 | 0.00 | 0.00 | 0.00 | 71 | 1008.5 |
| 20260505234212 | 84 | 199 | 0.0 | 0.0 | 0.00 | 0.00 | 0.00 | 71 | 1008.5 |
| 20260505233712 | 84 | 186 | 2.0 | 0.0 | 0.00 | 0.00 | 0.00 | 70 | 1008.5 |
| 20260505233213 | 84 | 159 | 3.0 | 0.0 | 0.00 | 0.00 | 0.00 | 69 | 1008.5 |
| 20260505232712 | 84 | 266 | 7.0 | 0.0 | 0.00 | 0.00 | 0.00 | 70 | 1008.5 |
| 20260505232211 | 85 | 133 | 4.0 | 0.0 | 0.00 | 0.00 | 0.00 | 69 | 1008.5 |
| 20260505231710 | 85 | 176 | 4.0 | 0.0 | 0.00 | 0.00 | 0.00 | 68 | 1008.5 |
| 20260505231211 | 85 | 177 | 1.0 | 0.0 | 0.00 | 0.00 | 0.00 | 70 | 1008.5 |
| 20260505230710 | 85 | 152 | 3.0 | 0.0 | 0.00 | 0.00 | 0.00 | 68 | 1008.1 |
| 20260505230212 | 85 | 254 | 4.0 | 0.0 | 0.00 | 0.00 | 0.00 | 68 | 1008.1 |
| 20260505225714 | 85 | 96 | 4.0 | 0.0 | 0.00 | 0.00 | 0.00 | 68 | 1008.1 |
| 20260505225211 | 85 | 104 | 4.0 | 0.0 | 0.00 | 0.00 | 0.00 | 68 | 1008.5 |
| 20260505224713 | 85 | 179 | 3.0 | 0.0 | 0.00 | 0.00 | 0.00 | 69 | 1008.5 |